• Currently

    Reported at Paducah, Barkley Regional Airport, KY
    1:19 PM CST WED FEB 22 2017
  • 68°F20°C
  • Partly Cloudy
    Partly Cloudy
  • Feels Like:68°F20°CDew Point:55°F13°CHumidity:64% Winds:SSE 3 mph 5 kph
    Pressure:29.83 in1010 hPaVisibility:10.00 miles16090.00 meters
Time Weather Temp Dew Point
Humidity Winds Visibility Pressure Precipitation
1 hr 24 hr
Thursday, February 23
14:19 14:19 Partly Cloudy Partly Cloudy 68°F20°C 55°F13°C 63% SSE 3 mphSSE 6 kph 10.0 miles16.1 km 29.83 in1010 hPa 0.00 in0.00 mm --
13:53 13:53 Mostly Cloudy Mostly Cloudy 66°F19°C 55°F13°C 68% E 3 mphE 6 kph 10.0 miles16.1 km 29.83 in1010 hPa 0.00 in0.00 mm --
12:53 12:53 Mostly Cloudy Mostly Cloudy 66°F19°C 56°F13°C 70% SE 8 mphSE 13 kph 10.0 miles16.1 km 29.85 in1011 hPa 0.00 in0.00 mm --
12:25 12:25 Mostly Cloudy Mostly Cloudy 64°F18°C 56°F13°C 75% SE 3 mphSE 6 kph 10.0 miles16.1 km 29.88 in1012 hPa 0.00 in0.00 mm --
12:17 12:17 Partly Cloudy Partly Cloudy 64°F18°C 55°F13°C 73% SSE 5 mphSSE 7 kph 10.0 miles16.1 km 29.88 in1012 hPa 0.00 in0.00 mm --
11:53 11:53 Mostly Cloudy Mostly Cloudy 65°F18°C 56°F13°C 73% SE 6 mphSE 9 kph 10.0 miles16.1 km 29.88 in1012 hPa 0.00 in0.00 mm --
11:26 11:26 Cloudy Cloudy 63°F17°C 57°F14°C 83% CalmCalm 10.0 miles16.1 km 29.88 in1012 hPa 0.00 in0.00 mm --
10:53 10:53 Cloudy Cloudy 61°F16°C 57°F14°C 87% ESE 3 mphESE 6 kph 7.0 miles11.3 km 29.88 in1012 hPa 0.00 in0.00 mm --
10:26 10:26 Cloudy With Mist And Fog Cloudy With Mist And Fog 61°F16°C 57°F14°C 88% SSE 3 mphSSE 6 kph 5.0 miles8.0 km 29.91 in1013 hPa 0.00 in0.00 mm --
10:18 10:18 Cloudy With Mist And Fog Cloudy With Mist And Fog 61°F16°C 57°F14°C 88% CalmCalm 5.0 miles8.0 km 29.91 in1013 hPa 0.00 in0.00 mm --
10:05 10:05 Cloudy With Mist And Fog Cloudy With Mist And Fog 60°F16°C 57°F14°C 90% CalmCalm 4.0 miles6.4 km 29.91 in1013 hPa 0.00 in0.00 mm --
09:53 09:53 Cloudy With Mist And Fog Cloudy With Mist And Fog 60°F16°C 57°F14°C 90% CalmCalm 4.0 miles6.4 km 29.91 in1013 hPa 0.00 in0.00 mm --
09:23 09:23 Cloudy With Mist And Fog Cloudy With Mist And Fog 59°F15°C 56°F13°C 90% CalmCalm 3.0 miles4.8 km 29.91 in1013 hPa 0.00 in0.00 mm --
08:53 08:53 Cloudy With Mist And Fog Cloudy With Mist And Fog 59°F15°C 56°F13°C 90% CalmCalm 2.0 miles3.2 km 29.91 in1013 hPa 0.00 in0.00 mm --
08:33 08:33 Cloudy With Mist And Fog Cloudy With Mist And Fog 58°F14°C 56°F13°C 93% CalmCalm 1.8 miles2.8 km 29.91 in1013 hPa 0.00 in0.00 mm --
08:03 08:03 Cloudy With Mist And Fog Cloudy With Mist And Fog 57°F14°C 55°F13°C 94% CalmCalm 1.8 miles2.8 km 29.91 in1013 hPa 0.00 in0.00 mm --
07:53 07:53 Cloudy With Mist And Fog Cloudy With Mist And Fog 57°F14°C 55°F13°C 93% CalmCalm 2.0 miles3.2 km 29.91 in1013 hPa 0.00 in0.00 mm --
07:51 07:51 Cloudy With Mist And Fog Cloudy With Mist And Fog 57°F14°C 55°F13°C 94% CalmCalm 2.0 miles3.2 km 29.91 in1013 hPa 0.00 in0.00 mm --
07:42 07:42 Cloudy With Mist And Fog Cloudy With Mist And Fog 57°F14°C 55°F13°C 94% CalmCalm 1.8 miles2.8 km 29.91 in1013 hPa 0.00 in0.00 mm --
07:32 07:32 Cloudy With Mist And Fog Cloudy With Mist And Fog 57°F14°C 55°F13°C 94% CalmCalm 3.0 miles4.8 km 29.88 in1012 hPa 0.00 in0.00 mm --
07:19 07:19 Cloudy With Mist And Fog Cloudy With Mist And Fog 57°F14°C 55°F13°C 93% CalmCalm 2.5 miles4.0 km 29.88 in1012 hPa 0.00 in0.00 mm --
07:07 07:07 Cloudy With Mist And Fog Cloudy With Mist And Fog 57°F14°C 55°F13°C 93% CalmCalm 2.5 miles4.0 km 29.88 in1012 hPa 0.00 in0.00 mm --
06:53 06:53 Cloudy With Mist And Fog Cloudy With Mist And Fog 57°F14°C 55°F13°C 93% SSE 3 mphSSE 6 kph 3.0 miles4.8 km 29.88 in1012 hPa 0.00 in0.00 mm --
06:45 06:45 Cloudy With Mist And Fog Cloudy With Mist And Fog 57°F14°C 55°F13°C 93% SSE 5 mphSSE 7 kph 3.0 miles4.8 km 29.88 in1012 hPa 0.00 in0.00 mm --
06:26 06:26 Cloudy With Mist And Fog Cloudy With Mist And Fog 57°F14°C 55°F13°C 94% SSE 5 mphSSE 7 kph 2.0 miles3.2 km 29.88 in1012 hPa 0.00 in0.00 mm --
05:53 05:53 Cloudy With Mist And Fog Cloudy With Mist And Fog 57°F14°C 55°F13°C 93% CalmCalm 3.0 miles4.8 km 29.91 in1013 hPa 0.00 in0.00 mm --
05:40 05:40 Mostly Cloudy With Mist And Fog Mostly Cloudy With Mist And Fog 57°F14°C 54°F12°C 88% NW 6 mphNW 9 kph 4.0 miles6.4 km 29.91 in1013 hPa 0.00 in0.00 mm --
05:30 05:30 Partly Cloudy With Mist And Fog Partly Cloudy With Mist And Fog 55°F13°C 54°F12°C 94% NW 6 mphNW 9 kph 4.0 miles6.4 km 29.91 in1013 hPa 0.00 in0.00 mm --
04:53 04:53 Clear With Mist And Fog Clear With Mist And Fog 58°F14°C 55°F13°C 90% CalmCalm 6.0 miles9.7 km 29.88 in1012 hPa 0.00 in0.00 mm --
03:53 03:53 Clear With Mist And Fog Clear With Mist And Fog 56°F13°C 54°F12°C 93% SSE 5 mphSSE 7 kph 3.0 miles4.8 km 29.88 in1012 hPa 0.00 in0.00 mm --
03:44 03:44 Clear With Mist And Fog Clear With Mist And Fog 55°F13°C 55°F13°C 100% SSE 3 mphSSE 6 kph 3.0 miles4.8 km 29.88 in1012 hPa 0.00 in0.00 mm --
03:34 03:34 Mostly Clear With Mist And Fog Mostly Clear With Mist And Fog 57°F14°C 54°F12°C 88% CalmCalm 2.5 miles4.0 km 29.88 in1012 hPa 0.00 in0.00 mm --
03:20 03:20 Mostly Cloudy With Mist And Fog Mostly Cloudy With Mist And Fog 57°F14°C 55°F13°C 94% E 3 mphE 6 kph 3.0 miles4.8 km 29.88 in1012 hPa 0.00 in0.00 mm --
02:57 02:57 Cloudy With Mist And Fog Cloudy With Mist And Fog 57°F14°C 55°F13°C 93% ESE 3 mphESE 6 kph 2.0 miles3.2 km 29.88 in1012 hPa 0.00 in0.00 mm --
02:53 02:53 Cloudy With Mist And Fog Cloudy With Mist And Fog 57°F14°C 55°F13°C 93% CalmCalm 1.8 miles2.8 km 29.88 in1012 hPa 0.00 in0.00 mm --
02:40 02:40 Cloudy With Mist And Fog Cloudy With Mist And Fog 57°F14°C 55°F13°C 94% CalmCalm 2.5 miles4.0 km 29.88 in1012 hPa 0.00 in0.00 mm --
02:07 02:07 Cloudy With Mist And Fog Cloudy With Mist And Fog 58°F14°C 55°F13°C 90% ENE 3 mphENE 6 kph 3.0 miles4.8 km 29.88 in1012 hPa 0.00 in0.00 mm --
01:53 01:53 Cloudy With Mist And Fog Cloudy With Mist And Fog 58°F14°C 55°F13°C 90% E 3 mphE 6 kph 2.5 miles4.0 km 29.88 in1012 hPa 0.02 in12.90 mm --
01:45 01:45 Cloudy With Mist And Fog Cloudy With Mist And Fog 57°F14°C 55°F13°C 93% NE 3 mphNE 6 kph 2.0 miles3.2 km 29.88 in1012 hPa 0.02 in12.90 mm --
01:38 01:38 Cloudy With Mist And Fog Cloudy With Mist And Fog 57°F14°C 55°F13°C 94% ENE 3 mphENE 6 kph 3.0 miles4.8 km 29.88 in1012 hPa 0.00 in0.00 mm --
01:22 01:22 Cloudy With Light Rain Cloudy With Light Rain 57°F14°C 55°F13°C 94% NNW 3 mphNNW 6 kph 2.5 miles4.0 km 29.91 in1013 hPa 0.00 in0.00 mm --

Site Deisgn Provided by Innovations Branding House, Paducah, KY